Regional Weather Roundup
Issued by NWS Little Rock, AR

Home | Current Version | Previous Version | Text Only | Print | Product List | Glossary Off
Versions: 1 2 3 4 5 6 7 8 9 10 11 12 13 14 15 16 17 18 19 20 21 22 23 24 25 26 27 28 29 30 31 32 33 34 35 36 37 38 39 40 41 42 43 44 45 46 47 48 49 50

000
ASUS44 KLZK 280905
RWRLZK

WEATHER ROUNDUP FOR ARKANSAS
NATIONAL WEATHER SERVICE LITTLE ROCK AR
400 AM CDT SAT MAR 28 2015

NOTE: "FAIR" INDICATES FEW OR NO CLOUDS BELOW 12,000 FEET WITH NO
SIGNIFICANT WEATHER AND/OR OBSTRUCTIONS TO VISIBILITY.

ARZ001-003-010-029-281000-
NORTHWEST ARKANSAS

CITY           SKY/WX    TMP DP  RH WIND       PRES   REMARKS
FAYETTEVILLE   CLOUDY    39  35  86 CALM      30.10F
FORT SMITH     CLOUDY    46  31  55 E3        30.11F
HARRISON       CLOUDY    40  26  57 SE5       30.10F
BENTONVILLE    MOCLDY    41  27  56 SE6       30.09F
ROGERS         MOCLDY    41  27  57 SE8       30.10F
SILOAM SPGS    CLOUDY    41  27  56 SE6       30.10F
HIGHFILL       MOCLDY    42  27  55 SE5       30.08F
$$

ARZ004-005-016-281000-
NORTH CENTRAL ARKANSAS

CITY           SKY/WX    TMP DP  RH WIND       PRES   REMARKS
BATESVILLE     CLOUDY    39  27  60 SE7       30.18S
FLIPPIN        CLOUDY    39  28  65 E5        30.13F
MTN HOME       CLOUDY    39  24  55 SE6       30.12F
$$

ARZ040-041-281000-
WEST CENTRAL ARKANSAS

CITY           SKY/WX    TMP DP  RH WIND       PRES   REMARKS
MENA           MOCLDY    39  36  87 CALM      30.11F
MOUNT IDA      PTCLDY    38  35  89 CALM      30.11F
$$

ARZ009-017-025-026-028-281000-
NORTHEAST ARKANSAS

CITY           SKY/WX    TMP DP  RH WIND       PRES   REMARKS
CORNING          N/A     36  28  75 E3        30.19F
JONESBORO      CLOUDY    35  32  88 CALM      30.19S
NEWPORT        CLOUDY    39  30  70 SE6       30.20F
BLYTHEVILLE    CLOUDY    36  29  75 CALM      30.20S
$$

ARZ022-023-033-042-044-281000-
CENTRAL ARKANSAS

CITY           SKY/WX    TMP DP  RH WIND       PRES   REMARKS
LITTLE ROCK    CLOUDY    45  32  60 CALM      30.17F
N LITTLE ROCK    N/A     44  33  65 S3        30.17F
JACKSONVILLE   CLOUDY    42  36  79 E5        30.16S
SEARCY         CLOUDY    40  30  67 E5        30.20S
HOT SPRINGS    PTCLDY    39  32  76 E7        30.16F
RUSSELLVILLE   CLOUDY    43  37  79 CALM      30.14F
CLINTON        CLOUDY    41  34  75 CALM      30.16F
$$

ARZ036-281000-
EAST ARKANSAS

CITY           SKY/WX    TMP DP  RH WIND       PRES   REMARKS
WEST MEMPHIS   PTCLDY    36  23  59 E3        30.20R
$$

ARZ050-053-066-070-073-281000-
SOUTHWEST ARKANSAS

CITY           SKY/WX    TMP DP  RH WIND       PRES   REMARKS
ARKADELPHIA    FAIR      41  40  96 CALM      30.16F
CAMDEN         PTCLDY    37  36  93 CALM      30.17F
TEXARKANA      PTCLDY    45  33  63 SE5       30.14F
EL DORADO      PTCLDY    38  36  92 CALM      30.17F
DE QUEEN       MOCLDY    39  37  92 NW3       30.13F
$$

ARZ056-057-069-281000-
SOUTHEAST ARKANSAS

CITY           SKY/WX    TMP DP  RH WIND       PRES   REMARKS
PINE BLUFF     PTCLDY    42  34  73 S3        30.18F
STUTTGART      CLOUDY    43  34  70 E7        30.18F
MONTICELLO     FAIR      39  35  86 CALM      30.18F

$$




USA.gov is the U.S. government's official web portal to all federal, state and local government web resources and services.